User: anonymous   Login
Location: Caltech
(34.1382°N, 118.1253°W)
Time: 12:37:31
(UTC-08:00)
Language:

SO-50 - Orbit

View from above orbital plane
View from above orbital plane
View from above satellite
View from above satellite

Ground track
Ground track

The orbit data is extracted from the following two-line orbital elements,

1 27607U 02058C   17347.22265666  .00000023  00000-0  23887-4 0  9991
2 27607  64.5559 298.4285 0042412  16.8572 343.3928 14.75401245805523
Epoch (UTC): 13 December 2017 05:20:37
Eccentricity: 0.0042412
inclination: 64.5559°
perigee height: 614 km
apogee height: 673 km
right ascension of ascending node: 298.4285°
argument of perigee: 16.8572°
revolutions per day: 14.75401245
mean anomaly at epoch: 343.3928°
orbit number at epoch: 80552

The dashed part of the orbit path shows where the satellite is in the earth's shadow,  

DLR